Time,TemperatureF,DewpointF,PressureIn,WindDirection,WindDirectionDegrees,WindSpeedMPH,WindSpeedGustMPH,Humidity,HourlyPrecipIn,Conditions,Clouds,dailyrainin,SoftwareType,DateUTC
2013-02-11 00:00:00,39.6,29.2,30.14,SSW,203,0.0,8.0,66,0.01,,---,0.00,VWS V14.00,2013-02-11 05:00:00,
2013-02-11 00:05:00,39.5,29.8,30.14,SSE,165,0.0,8.0,68,0.01,,---,0.00,VWS V14.00,2013-02-11 05:05:00,
2013-02-11 00:10:00,39.6,29.6,30.13,SSW,205,3.0,8.0,67,0.01,,---,0.00,VWS V14.00,2013-02-11 05:10:00,
2013-02-11 00:15:00,39.6,29.6,30.13,SSW,199,0.0,8.0,67,0.01,,---,0.00,VWS V14.00,2013-02-11 05:15:00,
2013-02-11 00:20:00,39.7,29.3,30.14,SSW,202,0.0,10.0,66,0.01,,---,0.00,VWS V14.00,2013-02-11 05:20:00,
2013-02-11 00:25:00,39.8,29.4,30.13,SSW,213,0.0,12.0,66,0.01,,---,0.00,VWS V14.00,2013-02-11 05:25:00,
2013-02-11 00:30:00,39.8,29.8,30.13,SSW,207,0.0,7.0,67,0.00,,---,0.00,VWS V14.00,2013-02-11 05:30:00,
2013-02-11 00:35:00,39.8,29.4,30.12,South,190,0.0,10.0,66,0.00,,---,0.00,VWS V14.00,2013-02-11 05:35:00,
2013-02-11 00:40:00,40.0,29.6,30.12,SSW,210,7.0,10.0,66,0.00,,---,0.00,VWS V14.00,2013-02-11 05:40:00,
2013-02-11 00:45:00,40.0,29.6,30.12,SSW,202,5.0,10.0,66,0.00,,---,0.00,VWS V14.00,2013-02-11 05:45:00,
2013-02-11 00:50:00,40.2,29.4,30.12,SW,232,4.0,13.0,65,0.00,,---,0.00,VWS V14.00,2013-02-11 05:50:00,
2013-02-11 00:55:00,40.4,29.6,30.11,SSW,192,6.0,13.0,65,0.00,,---,0.00,VWS V14.00,2013-02-11 05:55:00,
2013-02-11 01:00:00,40.4,29.6,30.12,SW,220,5.0,9.0,65,0.00,,---,0.00,VWS V14.00,2013-02-11 06:00:00,
2013-02-11 01:05:00,40.4,29.6,30.11,SSW,203,7.0,12.0,65,0.00,,---,0.00,VWS V14.00,2013-02-11 06:05:00,
2013-02-11 01:10:00,40.3,30.6,30.11,South,186,12.0,14.0,68,0.00,,---,0.00,VWS V14.00,2013-02-11 06:10:00,
2013-02-11 01:15:00,40.1,30.8,30.11,SSW,194,5.0,14.0,69,0.00,,---,0.00,VWS V14.00,2013-02-11 06:15:00,
2013-02-11 01:20:00,40.0,31.0,30.10,SSW,192,9.0,16.0,70,0.00,,---,0.00,VWS V14.00,2013-02-11 06:20:00,
2013-02-11 01:25:00,39.9,31.3,30.10,SSE,157,5.0,16.0,71,0.00,,---,0.00,VWS V14.00,2013-02-11 06:25:00,
2013-02-11 01:30:00,39.9,31.3,30.10,South,188,3.0,10.0,71,0.00,,---,0.00,VWS V14.00,2013-02-11 06:30:00,
2013-02-11 01:35:00,39.9,31.6,30.10,SSW,203,4.0,10.0,72,0.00,,---,0.00,VWS V14.00,2013-02-11 06:35:00,
2013-02-11 01:40:00,39.8,31.5,30.10,SSW,194,2.0,10.0,72,0.00,,---,0.00,VWS V14.00,2013-02-11 06:40:00,
2013-02-11 01:45:00,39.8,31.9,30.10,South,173,0.0,10.0,73,0.00,,---,0.00,VWS V14.00,2013-02-11 06:45:00,
2013-02-11 01:50:00,39.7,31.8,30.10,SW,229,3.0,10.0,73,0.00,,---,0.00,VWS V14.00,2013-02-11 06:50:00,
2013-02-11 01:55:00,39.7,32.1,30.10,SW,214,2.0,10.0,74,0.00,,---,0.00,VWS V14.00,2013-02-11 06:55:00,
2013-02-11 02:00:00,39.5,32.6,30.10,SW,214,4.0,6.0,76,0.00,,---,0.00,VWS V14.00,2013-02-11 07:00:00,
2013-02-11 02:05:00,39.1,32.2,30.10,SW,221,4.0,7.0,76,0.00,,---,0.00,VWS V14.00,2013-02-11 07:05:00,
2013-02-11 02:10:00,38.9,32.3,30.09,SW,218,0.0,7.0,77,0.00,,---,0.00,VWS V14.00,2013-02-11 07:10:00,
2013-02-11 02:15:00,38.8,32.5,30.09,SSW,200,2.0,7.0,78,0.00,,---,0.00,VWS V14.00,2013-02-11 07:15:00,
2013-02-11 02:20:00,38.8,32.5,30.08,SSW,201,2.0,8.0,78,0.00,,---,0.00,VWS V14.00,2013-02-11 07:20:00,
2013-02-11 02:25:00,39.0,33.0,30.09,SSW,200,6.0,9.0,79,0.00,,---,0.00,VWS V14.00,2013-02-11 07:25:00,
2013-02-11 02:30:00,39.2,33.2,30.08,South,184,6.0,8.0,79,0.00,,---,0.00,VWS V14.00,2013-02-11 07:30:00,
2013-02-11 02:35:00,39.4,33.4,30.08,South,171,6.0,10.0,79,0.00,,---,0.00,VWS V14.00,2013-02-11 07:35:00,
2013-02-11 02:40:00,39.5,33.5,30.07,SSE,157,4.0,11.0,79,0.00,,---,0.00,VWS V14.00,2013-02-11 07:40:00,
2013-02-11 02:45:00,39.6,33.3,30.06,SSE,154,6.0,11.0,78,0.00,,---,0.00,VWS V14.00,2013-02-11 07:45:00,
2013-02-11 02:50:00,39.7,33.4,30.06,South,176,7.0,11.0,78,0.00,,---,0.00,VWS V14.00,2013-02-11 07:50:00,
2013-02-11 02:55:00,39.8,33.5,30.06,South,184,6.0,11.0,78,0.00,,---,0.00,VWS V14.00,2013-02-11 07:55:00,
2013-02-11 03:00:00,39.9,33.9,30.05,South,173,6.0,11.0,79,0.00,,---,0.00,VWS V14.00,2013-02-11 08:00:00,
2013-02-11 03:05:00,40.0,34.0,30.05,SSE,160,5.0,11.0,79,0.00,,---,0.00,VWS V14.00,2013-02-11 08:05:00,
2013-02-11 03:10:00,40.1,34.1,30.04,South,178,0.0,11.0,79,0.00,,---,0.00,VWS V14.00,2013-02-11 08:10:00,
2013-02-11 03:15:00,40.1,34.1,30.03,South,184,0.0,11.0,79,0.00,,---,0.00,VWS V14.00,2013-02-11 08:15:00,
2013-02-11 03:20:00,40.1,34.1,30.03,South,185,4.0,11.0,79,0.00,,---,0.00,VWS V14.00,2013-02-11 08:20:00,
2013-02-11 03:25:00,40.3,34.3,30.03,South,171,4.0,11.0,79,0.00,,---,0.00,VWS V14.00,2013-02-11 08:25:00,
2013-02-11 03:30:00,40.3,34.3,30.03,South,182,2.0,6.0,79,0.00,,---,0.00,VWS V14.00,2013-02-11 08:30:00,
2013-02-11 03:35:00,40.4,34.4,30.03,South,189,4.0,7.0,79,0.00,,---,0.00,VWS V14.00,2013-02-11 08:35:00,
2013-02-11 03:40:00,40.4,34.4,30.02,SSW,200,3.0,7.0,79,0.00,,---,0.00,VWS V14.00,2013-02-11 08:40:00,
2013-02-11 03:45:00,40.7,34.4,30.02,South,180,10.0,10.0,78,0.00,,---,0.00,VWS V14.00,2013-02-11 08:45:00,
2013-02-11 03:50:00,40.9,34.3,30.01,South,178,0.0,12.0,77,0.00,,---,0.00,VWS V14.00,2013-02-11 08:50:00,
2013-02-11 03:55:00,41.1,34.5,30.01,South,178,0.0,12.0,77,0.00,,---,0.00,VWS V14.00,2013-02-11 08:55:00,
2013-02-11 04:00:00,41.1,34.5,30.01,SSE,164,6.0,8.0,77,0.00,,---,0.00,VWS V14.00,2013-02-11 09:00:00,
2013-02-11 04:05:00,41.0,34.3,30.01,South,180,3.0,8.0,77,0.00,,---,0.00,VWS V14.00,2013-02-11 09:05:00,
2013-02-11 04:10:00,41.0,34.3,30.01,SSW,194,2.0,8.0,77,0.00,,---,0.00,VWS V14.00,2013-02-11 09:10:00,
2013-02-11 04:15:00,40.9,34.3,30.00,SSE,166,2.0,8.0,77,0.00,,---,0.00,VWS V14.00,2013-02-11 09:15:00,
2013-02-11 04:20:00,40.9,34.3,30.01,SSW,194,5.0,9.0,77,0.00,,---,0.00,VWS V14.00,2013-02-11 09:20:00,
2013-02-11 04:25:00,40.9,34.3,30.01,South,186,5.0,9.0,77,0.00,,---,0.00,VWS V14.00,2013-02-11 09:25:00,
2013-02-11 04:30:00,40.9,34.6,30.00,SSW,194,0.0,5.0,78,0.00,,---,0.00,VWS V14.00,2013-02-11 09:30:00,
2013-02-11 04:35:00,40.9,34.6,30.00,SSW,192,0.0,5.0,78,0.00,,---,0.00,VWS V14.00,2013-02-11 09:35:00,
2013-02-11 04:40:00,40.8,34.5,30.00,SSE,165,5.0,5.0,78,0.00,,---,0.00,VWS V14.00,2013-02-11 09:40:00,
2013-02-11 04:45:00,40.8,34.5,30.00,South,186,1.0,6.0,78,0.00,,---,0.00,VWS V14.00,2013-02-11 09:45:00,
2013-02-11 04:50:00,40.7,34.7,30.00,SSW,198,2.0,6.0,79,0.00,,---,0.00,VWS V14.00,2013-02-11 09:50:00,
2013-02-11 04:55:00,40.7,34.7,30.00,SSW,192,6.0,8.0,79,0.00,,---,0.00,VWS V14.00,2013-02-11 09:55:00,
2013-02-11 05:00:00,40.8,34.5,29.99,South,178,4.0,7.0,78,0.00,,---,0.00,VWS V14.00,2013-02-11 10:00:00,
2013-02-11 05:05:00,40.8,34.8,29.99,SSW,204,2.0,7.0,79,0.00,,---,0.00,VWS V14.00,2013-02-11 10:05:00,
2013-02-11 05:10:00,40.7,34.7,29.99,SSW,205,0.0,7.0,79,0.00,,---,0.00,VWS V14.00,2013-02-11 10:10:00,
2013-02-11 05:15:00,40.7,35.0,29.99,SSW,209,0.0,7.0,80,0.00,,---,0.00,VWS V14.00,2013-02-11 10:15:00,
2013-02-11 05:20:00,40.8,35.1,29.99,SSW,209,1.0,7.0,80,0.00,,---,0.00,VWS V14.00,2013-02-11 10:20:00,
2013-02-11 05:25:00,40.9,35.2,29.99,SSW,198,0.0,7.0,80,0.00,,---,0.00,VWS V14.00,2013-02-11 10:25:00,
2013-02-11 05:30:00,41.0,35.3,29.99,South,187,2.0,3.0,80,0.00,,---,0.00,VWS V14.00,2013-02-11 10:30:00,
2013-02-11 05:35:00,41.0,35.6,29.99,SSW,204,1.0,4.0,81,0.00,,---,0.00,VWS V14.00,2013-02-11 10:35:00,
2013-02-11 05:40:00,41.0,35.6,29.99,SSW,209,1.0,7.0,81,0.00,,---,0.00,VWS V14.00,2013-02-11 10:40:00,
2013-02-11 05:45:00,41.1,35.4,29.98,South,190,7.0,9.0,80,0.00,,---,0.00,VWS V14.00,2013-02-11 10:45:00,
2013-02-11 05:50:00,41.1,35.7,29.98,SSW,207,6.0,9.0,81,0.00,,---,0.00,VWS V14.00,2013-02-11 10:50:00,
2013-02-11 05:55:00,41.1,35.4,29.99,SW,236,0.0,9.0,80,0.00,,---,0.00,VWS V14.00,2013-02-11 10:55:00,
2013-02-11 06:00:00,41.1,35.4,29.99,SSW,213,2.0,7.0,80,0.00,,---,0.00,VWS V14.00,2013-02-11 11:00:00,
2013-02-11 06:05:00,41.1,35.7,29.98,SSW,198,3.0,7.0,81,0.00,,---,0.00,VWS V14.00,2013-02-11 11:05:00,
2013-02-11 06:10:00,41.1,35.7,29.98,SSW,204,6.0,10.0,81,0.00,,---,0.00,VWS V14.00,2013-02-11 11:10:00,
2013-02-11 06:15:00,41.2,36.1,29.97,SSW,213,4.0,10.0,82,0.00,,---,0.00,VWS V14.00,2013-02-11 11:15:00,
2013-02-11 06:20:00,41.3,36.2,29.98,WSW,246,6.0,10.0,82,0.00,,---,0.00,VWS V14.00,2013-02-11 11:20:00,
2013-02-11 06:25:00,41.2,35.8,29.97,SW,232,4.0,10.0,81,0.00,,---,0.00,VWS V14.00,2013-02-11 11:25:00,
2013-02-11 06:30:00,41.1,35.7,29.98,SW,233,3.0,10.0,81,0.00,,---,0.00,VWS V14.00,2013-02-11 11:30:00,
2013-02-11 06:35:00,41.1,35.7,29.98,SW,217,6.0,10.0,81,0.00,,---,0.00,VWS V14.00,2013-02-11 11:35:00,
2013-02-11 06:40:00,41.0,35.6,29.99,SW,216,5.0,10.0,81,0.00,,---,0.00,VWS V14.00,2013-02-11 11:40:00,
2013-02-11 06:45:00,41.0,35.9,29.98,SW,222,3.0,10.0,82,0.00,,---,0.00,VWS V14.00,2013-02-11 11:45:00,
2013-02-11 06:50:00,41.0,35.9,29.98,SW,227,4.0,10.0,82,0.00,,---,0.00,VWS V14.00,2013-02-11 11:50:00,
2013-02-11 06:55:00,41.0,35.9,29.98,WSW,238,6.0,10.0,82,0.00,,---,0.00,VWS V14.00,2013-02-11 11:55:00,
2013-02-11 07:00:00,41.0,35.9,29.96,SW,230,3.0,5.0,82,0.00,,---,0.00,VWS V14.00,2013-02-11 12:00:00,
2013-02-11 07:05:00,41.0,35.9,29.97,SW,230,3.0,7.0,82,0.00,,---,0.00,VWS V14.00,2013-02-11 12:05:00,
2013-02-11 07:10:00,40.9,36.1,29.97,SW,234,0.0,7.0,83,0.00,,---,0.00,VWS V14.00,2013-02-11 12:10:00,
2013-02-11 07:15:00,41.0,36.2,29.97,SW,215,0.0,7.0,83,0.00,,---,0.00,VWS V14.00,2013-02-11 12:15:00,
2013-02-11 07:20:00,41.0,36.2,29.97,SW,216,0.0,7.0,83,0.00,,---,0.00,VWS V14.00,2013-02-11 12:20:00,
2013-02-11 07:25:00,41.1,36.6,29.96,SW,217,0.0,7.0,84,0.00,,---,0.00,VWS V14.00,2013-02-11 12:25:00,
2013-02-11 07:30:00,41.1,36.6,29.96,SW,233,5.0,5.0,84,0.00,,---,0.00,VWS V14.00,2013-02-11 12:30:00,
2013-02-11 07:35:00,41.1,36.6,29.95,West,259,4.0,8.0,84,0.00,,---,0.00,VWS V14.00,2013-02-11 12:35:00,
2013-02-11 07:40:00,41.1,36.6,29.94,WSW,257,4.0,8.0,84,0.00,,---,0.00,VWS V14.00,2013-02-11 12:40:00,
2013-02-11 07:45:00,41.2,36.7,29.94,WSW,257,0.0,8.0,84,0.00,,---,0.00,VWS V14.00,2013-02-11 12:45:00,
2013-02-11 07:50:00,41.5,37.3,29.94,West,262,4.0,8.0,85,0.00,,---,0.00,VWS V14.00,2013-02-11 12:50:00,
2013-02-11 07:55:00,41.8,37.6,29.94,West,266,0.0,8.0,85,0.00,,---,0.00,VWS V14.00,2013-02-11 12:55:00,
2013-02-11 08:00:00,41.9,37.4,29.93,West,264,2.0,4.0,84,0.00,,---,0.00,VWS V14.00,2013-02-11 13:00:00,
2013-02-11 08:05:00,42.2,38.0,29.93,WNW,292,0.0,5.0,85,0.00,,---,0.00,VWS V14.00,2013-02-11 13:05:00,
2013-02-11 08:10:00,42.7,38.5,29.93,WNW,290,0.0,5.0,85,0.00,,---,0.00,VWS V14.00,2013-02-11 13:10:00,
2013-02-11 08:15:00,43.3,39.1,29.93,SSE,165,0.0,5.0,85,0.00,,---,0.00,VWS V14.00,2013-02-11 13:15:00,
2013-02-11 08:20:00,43.8,39.6,29.93,WNW,287,4.0,8.0,85,0.00,,---,0.00,VWS V14.00,2013-02-11 13:20:00,
2013-02-11 08:25:00,43.8,39.3,29.94,West,270,2.0,8.0,84,0.00,,---,0.00,VWS V14.00,2013-02-11 13:25:00,
2013-02-11 08:30:00,43.6,39.1,29.94,West,272,0.0,4.0,84,0.00,,---,0.00,VWS V14.00,2013-02-11 13:30:00,
2013-02-11 08:35:00,43.7,39.2,29.93,West,272,0.0,4.0,84,0.00,,---,0.00,VWS V14.00,2013-02-11 13:35:00,
2013-02-11 08:40:00,44.1,39.9,29.93,West,271,0.0,4.0,85,0.00,,---,0.00,VWS V14.00,2013-02-11 13:40:00,
2013-02-11 08:45:00,44.5,40.3,29.94,West,267,0.0,4.0,85,0.00,,---,0.00,VWS V14.00,2013-02-11 13:45:00,
2013-02-11 08:50:00,44.9,40.4,29.93,West,269,2.0,4.0,84,0.00,,---,0.00,VWS V14.00,2013-02-11 13:50:00,
2013-02-11 08:55:00,44.9,40.4,29.93,WNW,298,4.0,7.0,84,0.00,,---,0.00,VWS V14.00,2013-02-11 13:55:00,
2013-02-11 09:00:00,44.9,40.4,29.92,WNW,298,0.0,5.0,84,0.00,,---,0.00,VWS V14.00,2013-02-11 14:00:00,
2013-02-11 09:05:00,44.9,40.4,29.92,WNW,297,4.0,5.0,84,0.00,,---,0.00,VWS V14.00,2013-02-11 14:05:00,
2013-02-11 09:10:00,45.7,41.5,29.92,South,186,5.0,10.0,85,0.00,,---,0.00,VWS V14.00,2013-02-11 14:10:00,
2013-02-11 09:15:00,46.3,42.0,29.92,SSW,204,1.0,10.0,85,0.00,,---,0.00,VWS V14.00,2013-02-11 14:15:00,
2013-02-11 09:20:00,48.0,44.0,29.92,SSW,207,8.0,14.0,86,0.00,,---,0.00,VWS V14.00,2013-02-11 14:20:00,
2013-02-11 09:25:00,49.8,44.8,29.92,SSW,199,11.0,15.0,83,0.00,,---,0.00,VWS V14.00,2013-02-11 14:25:00,
2013-02-11 09:30:00,50.8,45.2,29.92,South,186,4.0,20.0,81,0.00,,---,0.00,VWS V14.00,2013-02-11 14:30:00,
2013-02-11 09:35:00,51.7,45.4,29.92,SE,144,9.0,20.0,79,0.00,,---,0.00,VWS V14.00,2013-02-11 14:35:00,
2013-02-11 09:40:00,52.0,45.4,29.91,South,189,11.0,20.0,78,0.00,,---,0.00,VWS V14.00,2013-02-11 14:40:00,
2013-02-11 09:45:00,52.1,45.5,29.91,SSE,158,10.0,20.0,78,0.00,,---,0.00,VWS V14.00,2013-02-11 14:45:00,
2013-02-11 09:50:00,52.0,45.4,29.91,SSE,161,8.0,20.0,78,0.00,,---,0.00,VWS V14.00,2013-02-11 14:50:00,
2013-02-11 09:55:00,51.8,45.2,29.91,SE,125,16.0,21.0,78,0.00,,---,0.00,VWS V14.00,2013-02-11 14:55:00,
2013-02-11 10:00:00,51.9,45.3,29.90,South,177,12.0,17.0,78,0.00,,---,0.00,VWS V14.00,2013-02-11 15:00:00,
2013-02-11 10:05:00,51.8,45.2,29.90,South,173,12.0,19.0,78,0.00,,---,0.00,VWS V14.00,2013-02-11 15:05:00,
2013-02-11 10:10:00,52.0,45.4,29.90,SE,140,7.0,22.0,78,0.00,,---,0.00,VWS V14.00,2013-02-11 15:10:00,
2013-02-11 10:15:00,52.6,46.0,29.90,South,178,13.0,22.0,78,0.00,,---,0.00,VWS V14.00,2013-02-11 15:15:00,
2013-02-11 10:20:00,53.2,46.5,29.89,SSE,161,6.0,22.0,78,0.00,,---,0.00,VWS V14.00,2013-02-11 15:20:00,
2013-02-11 10:25:00,54.2,46.8,29.89,SSE,166,8.0,22.0,76,0.00,,---,0.00,VWS V14.00,2013-02-11 15:25:00,
2013-02-11 10:30:00,54.7,46.9,29.89,SSE,153,16.0,20.0,75,0.00,,---,0.00,VWS V14.00,2013-02-11 15:30:00,
2013-02-11 10:35:00,55.0,47.2,29.89,South,175,13.0,20.0,75,0.00,,---,0.00,VWS V14.00,2013-02-11 15:35:00,
2013-02-11 10:40:00,55.7,47.9,29.89,South,173,13.0,24.0,75,0.00,,---,0.00,VWS V14.00,2013-02-11 15:40:00,
2013-02-11 10:45:00,55.9,48.1,29.88,SSW,209,4.0,24.0,75,0.00,,---,0.00,VWS V14.00,2013-02-11 15:45:00,
2013-02-11 10:50:00,56.4,48.2,29.88,SW,228,10.0,32.0,74,0.00,,---,0.00,VWS V14.00,2013-02-11 15:50:00,
2013-02-11 10:55:00,57.1,48.5,29.88,SE,145,10.0,32.0,73,0.00,,---,0.00,VWS V14.00,2013-02-11 15:55:00,
2013-02-11 11:00:00,57.1,48.5,29.88,South,184,17.0,22.0,73,0.00,,---,0.00,VWS V14.00,2013-02-11 16:00:00,
2013-02-11 11:05:00,56.9,48.7,29.87,SSE,161,2.0,24.0,74,0.00,,---,0.00,VWS V14.00,2013-02-11 16:05:00,
2013-02-11 11:10:00,57.1,48.5,29.86,SE,145,12.0,24.0,73,0.00,,---,0.00,VWS V14.00,2013-02-11 16:10:00,
2013-02-11 11:15:00,57.1,48.9,29.86,SSE,150,20.0,24.0,74,0.00,,---,0.00,VWS V14.00,2013-02-11 16:15:00,
2013-02-11 11:20:00,57.7,49.1,29.86,South,185,2.0,24.0,73,0.00,,---,0.00,VWS V14.00,2013-02-11 16:20:00,
2013-02-11 11:25:00,58.2,49.6,29.86,ESE,123,4.0,24.0,73,0.00,,---,0.00,VWS V14.00,2013-02-11 16:25:00,
2013-02-11 11:30:00,58.2,49.2,29.86,South,178,10.0,21.0,72,0.00,,---,0.00,VWS V14.00,2013-02-11 16:30:00,
2013-02-11 11:35:00,58.1,49.1,29.85,SE,146,10.0,24.0,72,0.00,,---,0.00,VWS V14.00,2013-02-11 16:35:00,
2013-02-11 11:40:00,58.1,49.1,29.85,South,172,10.0,24.0,72,0.00,,---,0.00,VWS V14.00,2013-02-11 16:40:00,
2013-02-11 11:45:00,58.3,49.7,29.85,South,191,15.0,24.0,73,0.00,,---,0.00,VWS V14.00,2013-02-11 16:45:00,
2013-02-11 11:50:00,58.6,49.6,29.84,South,189,9.0,24.0,72,0.00,,---,0.00,VWS V14.00,2013-02-11 16:50:00,
2013-02-11 11:55:00,59.3,50.3,29.84,SSW,202,7.0,24.0,72,0.00,,---,0.00,VWS V14.00,2013-02-11 16:55:00,
2013-02-11 12:00:00,59.5,50.1,29.84,South,169,10.0,16.0,71,0.00,,---,0.00,VWS V14.00,2013-02-11 17:00:00,
2013-02-11 12:05:00,59.7,49.9,29.83,South,170,6.0,18.0,70,0.00,,---,0.00,VWS V14.00,2013-02-11 17:05:00,
2013-02-11 12:10:00,60.0,50.6,29.83,SSW,194,3.0,18.0,71,0.00,,---,0.00,VWS V14.00,2013-02-11 17:10:00,
2013-02-11 12:15:00,60.5,50.3,29.82,South,177,9.0,18.0,69,0.00,,---,0.00,VWS V14.00,2013-02-11 17:15:00,
2013-02-11 12:20:00,60.8,50.6,29.82,South,169,10.0,18.0,69,0.00,,---,0.00,VWS V14.00,2013-02-11 17:20:00,
2013-02-11 12:25:00,61.1,50.5,29.81,South,184,1.0,18.0,68,0.00,,---,0.00,VWS V14.00,2013-02-11 17:25:00,
2013-02-11 12:30:00,61.1,50.9,29.82,SSW,201,7.0,14.0,69,0.00,,---,0.00,VWS V14.00,2013-02-11 17:30:00,
2013-02-11 12:35:00,61.6,51.0,29.81,SSE,168,16.0,16.0,68,0.00,,---,0.00,VWS V14.00,2013-02-11 17:35:00,
2013-02-11 12:40:00,61.8,50.7,29.82,WSW,238,10.0,19.0,67,0.00,,---,0.00,VWS V14.00,2013-02-11 17:40:00,
2013-02-11 12:45:00,62.3,51.2,29.81,WSW,244,13.0,22.0,67,0.00,,---,0.00,VWS V14.00,2013-02-11 17:45:00,
2013-02-11 12:50:00,62.4,50.5,29.81,WSW,245,8.0,27.0,65,0.00,,---,0.00,VWS V14.00,2013-02-11 17:50:00,
2013-02-11 12:55:00,62.2,50.3,29.81,SSW,211,10.0,28.0,65,0.00,,---,0.00,VWS V14.00,2013-02-11 17:55:00,
2013-02-11 13:00:00,62.2,50.3,29.81,SSE,150,4.0,23.0,65,0.00,,---,0.00,VWS V14.00,2013-02-11 18:00:00,
2013-02-11 13:05:00,62.2,50.3,29.81,SSW,210,4.0,23.0,65,0.00,,---,0.00,VWS V14.00,2013-02-11 18:05:00,
2013-02-11 13:10:00,62.1,50.2,29.81,SW,216,9.0,23.0,65,0.00,,---,0.00,VWS V14.00,2013-02-11 18:10:00,
2013-02-11 13:15:00,62.1,50.2,29.80,SSW,198,13.0,23.0,65,0.00,,---,0.00,VWS V14.00,2013-02-11 18:15:00,
2013-02-11 13:20:00,62.0,50.5,29.79,SSE,151,10.0,25.0,66,0.00,,---,0.00,VWS V14.00,2013-02-11 18:20:00,
2013-02-11 13:25:00,61.5,50.0,29.79,SSE,167,12.0,25.0,66,0.00,,---,0.00,VWS V14.00,2013-02-11 18:25:00,
2013-02-11 13:30:00,61.6,51.0,29.78,SSW,213,7.0,12.0,68,0.00,,---,0.00,VWS V14.00,2013-02-11 18:30:00,
2013-02-11 13:35:00,62.5,50.6,29.78,SW,215,7.0,24.0,65,0.00,,---,0.00,VWS V14.00,2013-02-11 18:35:00,
2013-02-11 13:40:00,62.5,51.0,29.78,SSW,207,11.0,24.0,66,0.00,,---,0.00,VWS V14.00,2013-02-11 18:40:00,
2013-02-11 13:45:00,62.5,50.6,29.78,South,187,9.0,24.0,65,0.00,,---,0.00,VWS V14.00,2013-02-11 18:45:00,
2013-02-11 13:50:00,62.3,50.4,29.78,SSW,192,15.0,24.0,65,0.00,,---,0.00,VWS V14.00,2013-02-11 18:50:00,
2013-02-11 13:55:00,62.6,50.7,29.78,South,187,10.0,24.0,65,0.00,,---,0.00,VWS V14.00,2013-02-11 18:55:00,
2013-02-11 14:00:00,63.4,50.6,29.78,SW,221,17.0,17.0,63,0.00,,---,0.00,VWS V14.00,2013-02-11 19:00:00,
2013-02-11 14:05:00,63.5,50.3,29.78,South,175,5.0,17.0,62,0.00,,---,0.00,VWS V14.00,2013-02-11 19:05:00,
2013-02-11 14:10:00,63.2,50.0,29.77,SW,236,10.0,20.0,62,0.00,,---,0.00,VWS V14.00,2013-02-11 19:10:00,
2013-02-11 14:15:00,63.2,50.0,29.77,SSW,213,12.0,20.0,62,0.00,,---,0.00,VWS V14.00,2013-02-11 19:15:00,
2013-02-11 14:20:00,63.1,49.5,29.76,South,180,8.0,24.0,61,0.00,,---,0.00,VWS V14.00,2013-02-11 19:20:00,
2013-02-11 14:25:00,62.9,49.3,29.75,SW,223,10.0,24.0,61,0.00,,---,0.00,VWS V14.00,2013-02-11 19:25:00,
2013-02-11 14:30:00,62.9,49.3,29.76,ESE,121,7.0,18.0,61,0.00,,---,0.00,VWS V14.00,2013-02-11 19:30:00,
2013-02-11 14:35:00,62.9,49.3,29.76,SSW,213,14.0,21.0,61,0.00,,---,0.00,VWS V14.00,2013-02-11 19:35:00,
2013-02-11 14:40:00,62.9,49.3,29.77,South,173,6.0,23.0,61,0.00,,---,0.00,VWS V14.00,2013-02-11 19:40:00,
2013-02-11 14:45:00,62.9,49.3,29.76,SSW,213,7.0,23.0,61,0.00,,---,0.00,VWS V14.00,2013-02-11 19:45:00,
2013-02-11 14:50:00,62.8,49.2,29.77,SSW,198,6.0,23.0,61,0.00,,---,0.00,VWS V14.00,2013-02-11 19:50:00,
2013-02-11 14:55:00,62.9,49.3,29.76,SW,224,2.0,23.0,61,0.00,,---,0.00,VWS V14.00,2013-02-11 19:55:00,
2013-02-11 15:00:00,63.0,49.4,29.76,SSE,163,6.0,19.0,61,0.00,,---,0.00,VWS V14.00,2013-02-11 20:00:00,
2013-02-11 15:05:00,62.9,49.3,29.76,SSE,149,4.0,20.0,61,0.00,,---,0.00,VWS V14.00,2013-02-11 20:05:00,
2013-02-11 15:10:00,63.0,49.4,29.76,SSW,207,7.0,20.0,61,0.00,,---,0.00,VWS V14.00,2013-02-11 20:10:00,
2013-02-11 15:15:00,63.0,49.4,29.76,South,188,12.0,22.0,61,0.00,,---,0.00,VWS V14.00,2013-02-11 20:15:00,
2013-02-11 15:20:00,63.1,49.5,29.76,SW,217,11.0,22.0,61,0.00,,---,0.00,VWS V14.00,2013-02-11 20:20:00,
2013-02-11 15:25:00,63.2,49.5,29.76,South,170,12.0,23.0,61,0.00,,---,0.00,VWS V14.00,2013-02-11 20:25:00,
2013-02-11 15:30:00,63.2,49.5,29.76,South,187,16.0,20.0,61,0.00,,---,0.00,VWS V14.00,2013-02-11 20:30:00,
2013-02-11 15:35:00,63.2,49.5,29.76,South,173,12.0,20.0,61,0.00,,---,0.00,VWS V14.00,2013-02-11 20:35:00,
2013-02-11 15:40:00,63.1,49.5,29.76,SSW,197,11.0,22.0,61,0.00,,---,0.00,VWS V14.00,2013-02-11 20:40:00,
2013-02-11 15:45:00,63.0,49.4,29.76,SW,225,16.0,22.0,61,0.00,,---,0.00,VWS V14.00,2013-02-11 20:45:00,
2013-02-11 15:50:00,63.0,49.4,29.76,SSE,163,24.0,24.0,61,0.00,,---,0.00,VWS V14.00,2013-02-11 20:50:00,
2013-02-11 15:55:00,63.0,49.4,29.75,South,182,11.0,24.0,61,0.00,,---,0.00,VWS V14.00,2013-02-11 20:55:00,
2013-02-11 16:00:00,62.9,49.3,29.75,South,188,11.0,19.0,61,0.00,,---,0.00,VWS V14.00,2013-02-11 21:00:00,
2013-02-11 16:05:00,62.8,49.2,29.75,SSW,196,5.0,19.0,61,0.00,,---,0.00,VWS V14.00,2013-02-11 21:05:00,
2013-02-11 16:10:00,62.6,49.0,29.75,South,186,14.0,19.0,61,0.00,,---,0.00,VWS V14.00,2013-02-11 21:10:00,
2013-02-11 16:15:00,62.7,49.1,29.75,SSW,195,7.0,19.0,61,0.00,,---,0.00,VWS V14.00,2013-02-11 21:15:00,
2013-02-11 16:20:00,62.6,49.0,29.75,South,182,12.0,19.0,61,0.00,,---,0.00,VWS V14.00,2013-02-11 21:20:00,
2013-02-11 16:25:00,62.5,48.9,29.75,South,174,8.0,20.0,61,0.00,,---,0.00,VWS V14.00,2013-02-11 21:25:00,
2013-02-11 16:30:00,62.4,48.8,29.75,South,190,6.0,14.0,61,0.00,,---,0.00,VWS V14.00,2013-02-11 21:30:00,
2013-02-11 16:35:00,62.3,48.7,29.75,SSE,159,9.0,14.0,61,0.00,,---,0.00,VWS V14.00,2013-02-11 21:35:00,
2013-02-11 16:40:00,62.2,48.6,29.75,South,169,7.0,15.0,61,0.00,,---,0.00,VWS V14.00,2013-02-11 21:40:00,
2013-02-11 16:45:00,62.1,48.5,29.75,SSW,202,2.0,15.0,61,0.00,,---,0.00,VWS V14.00,2013-02-11 21:45:00,
2013-02-11 16:50:00,61.9,48.3,29.75,South,178,5.0,15.0,61,0.00,,---,0.00,VWS V14.00,2013-02-11 21:50:00,
2013-02-11 16:55:00,61.8,48.2,29.75,South,179,7.0,17.0,61,0.00,,---,0.00,VWS V14.00,2013-02-11 21:55:00,
2013-02-11 17:00:00,61.8,48.2,29.75,SSW,209,2.0,10.0,61,0.00,,---,0.00,VWS V14.00,2013-02-11 22:00:00,
2013-02-11 17:05:00,61.5,47.9,29.75,South,182,7.0,12.0,61,0.00,,---,0.00,VWS V14.00,2013-02-11 22:05:00,
2013-02-11 17:10:00,61.4,47.8,29.75,South,170,16.0,16.0,61,0.00,,---,0.00,VWS V14.00,2013-02-11 22:10:00,
2013-02-11 17:15:00,61.6,47.6,29.75,South,184,8.0,16.0,60,0.00,,---,0.00,VWS V14.00,2013-02-11 22:15:00,
2013-02-11 17:20:00,61.5,47.5,29.75,SSW,197,3.0,16.0,60,0.00,,---,0.00,VWS V14.00,2013-02-11 22:20:00,
2013-02-11 17:25:00,61.3,46.0,29.74,South,173,11.0,16.0,57,0.00,,---,0.00,VWS V14.00,2013-02-11 22:25:00,
2013-02-11 17:30:00,61.6,45.8,29.74,WSW,243,19.0,19.0,56,0.00,,---,0.00,VWS V14.00,2013-02-11 22:30:00,
2013-02-11 17:35:00,61.8,44.5,29.74,SSW,205,9.0,19.0,53,0.00,,---,0.00,VWS V14.00,2013-02-11 22:35:00,
2013-02-11 17:40:00,62.0,43.7,29.74,SSW,213,12.0,19.0,51,0.00,,---,0.00,VWS V14.00,2013-02-11 22:40:00,
2013-02-11 17:45:00,62.1,43.8,29.74,SSW,201,9.0,19.0,51,0.00,,---,0.00,VWS V14.00,2013-02-11 22:45:00,
2013-02-11 17:50:00,62.1,42.7,29.74,South,188,5.0,19.0,49,0.00,,---,0.00,VWS V14.00,2013-02-11 22:50:00,
2013-02-11 17:55:00,62.1,41.7,29.74,SW,229,7.0,21.0,47,0.00,,---,0.00,VWS V14.00,2013-02-11 22:55:00,
2013-02-11 18:00:00,62.1,41.1,29.75,SW,227,17.0,18.0,46,0.00,,---,0.00,VWS V14.00,2013-02-11 23:00:00,
2013-02-11 18:05:00,62.1,40.5,29.74,SW,232,12.0,18.0,45,0.00,,---,0.00,VWS V14.00,2013-02-11 23:05:00,
2013-02-11 18:10:00,62.1,40.0,29.74,SSW,213,12.0,20.0,44,0.00,,---,0.00,VWS V14.00,2013-02-11 23:10:00,
2013-02-11 18:15:00,62.3,39.5,29.74,SW,214,6.0,20.0,43,0.00,,---,0.00,VWS V14.00,2013-02-11 23:15:00,
2013-02-11 18:20:00,62.2,38.2,29.74,SSW,211,8.0,20.0,41,0.00,,---,0.00,VWS V14.00,2013-02-11 23:20:00,
2013-02-11 18:25:00,62.2,37.6,29.74,SW,215,6.0,22.0,40,0.00,,---,0.00,VWS V14.00,2013-02-11 23:25:00,
2013-02-11 18:30:00,62.2,36.3,29.74,SSW,204,6.0,14.0,38,0.00,,---,0.00,VWS V14.00,2013-02-11 23:30:00,
2013-02-11 18:35:00,62.2,34.9,29.74,SW,230,7.0,15.0,36,0.00,,---,0.00,VWS V14.00,2013-02-11 23:35:00,
2013-02-11 18:40:00,62.1,34.8,29.74,SW,225,15.0,19.0,36,0.00,,---,0.00,VWS V14.00,2013-02-11 23:40:00,
2013-02-11 18:45:00,62.0,35.5,29.74,SW,225,12.0,21.0,37,0.00,,---,0.00,VWS V14.00,2013-02-11 23:45:00,
2013-02-11 18:50:00,61.9,35.4,29.74,SW,223,9.0,21.0,37,0.00,,---,0.00,VWS V14.00,2013-02-11 23:50:00,
2013-02-11 18:55:00,61.8,34.6,29.75,SSW,213,2.0,22.0,36,0.00,,---,0.00,VWS V14.00,2013-02-11 23:55:00,
2013-02-11 19:00:00,61.6,34.4,29.74,SW,224,4.0,15.0,36,0.00,,---,0.00,VWS V14.00,2013-02-12 00:00:00,
2013-02-11 19:05:00,61.2,32.6,29.75,SSW,207,6.0,15.0,34,0.00,,---,0.00,VWS V14.00,2013-02-12 00:05:00,
2013-02-11 19:10:00,61.0,30.2,29.76,WSW,246,8.0,20.0,31,0.00,,---,0.00,VWS V14.00,2013-02-12 00:10:00,
2013-02-11 19:15:00,61.1,29.5,29.76,WSW,238,11.0,20.0,30,0.00,,---,0.00,VWS V14.00,2013-02-12 00:15:00,
2013-02-11 19:20:00,61.0,29.4,29.75,SW,223,7.0,20.0,30,0.00,,---,0.00,VWS V14.00,2013-02-12 00:20:00,
2013-02-11 19:25:00,60.7,27.4,29.76,WSW,253,15.0,24.0,28,0.00,,---,0.00,VWS V14.00,2013-02-12 00:25:00,
2013-02-11 19:30:00,60.7,27.4,29.76,WSW,250,11.0,12.0,28,0.00,,---,0.00,VWS V14.00,2013-02-12 00:30:00,
2013-02-11 19:35:00,60.3,27.1,29.76,SW,225,2.0,12.0,28,0.00,,---,0.00,VWS V14.00,2013-02-12 00:35:00,
2013-02-11 19:40:00,59.9,26.7,29.76,SW,216,4.0,12.0,28,0.00,,---,0.00,VWS V14.00,2013-02-12 00:40:00,
2013-02-11 19:45:00,59.6,28.1,29.76,WSW,257,0.0,12.0,30,0.00,,---,0.00,VWS V14.00,2013-02-12 00:45:00,
2013-02-11 19:50:00,59.4,28.0,29.77,SW,217,4.0,12.0,30,0.00,,---,0.00,VWS V14.00,2013-02-12 00:50:00,
2013-02-11 19:55:00,59.4,28.0,29.76,South,183,0.0,12.0,30,0.00,,---,0.00,VWS V14.00,2013-02-12 00:55:00,
2013-02-11 20:00:00,59.3,26.2,29.76,West,260,12.0,18.0,28,0.00,,---,0.00,VWS V14.00,2013-02-12 01:00:00,
2013-02-11 20:05:00,59.4,24.5,29.77,WSW,248,8.0,21.0,26,0.00,,---,0.00,VWS V14.00,2013-02-12 01:05:00,
2013-02-11 20:10:00,59.6,24.7,29.77,WSW,246,5.0,22.0,26,0.00,,---,0.00,VWS V14.00,2013-02-12 01:10:00,
2013-02-11 20:15:00,59.5,24.6,29.77,SW,232,11.0,22.0,26,0.00,,---,0.00,VWS V14.00,2013-02-12 01:15:00,
2013-02-11 20:20:00,59.5,23.7,29.77,SW,219,8.0,27.0,25,0.00,,---,0.00,VWS V14.00,2013-02-12 01:20:00,
2013-02-11 20:25:00,59.5,23.7,29.77,WSW,251,14.0,27.0,25,0.00,,---,0.00,VWS V14.00,2013-02-12 01:25:00,
2013-02-11 20:30:00,59.5,23.7,29.78,SW,220,10.0,19.0,25,0.00,,---,0.00,VWS V14.00,2013-02-12 01:30:00,
2013-02-11 20:35:00,59.4,22.6,29.78,West,265,10.0,30.0,24,0.00,,---,0.00,VWS V14.00,2013-02-12 01:35:00,
2013-02-11 20:40:00,59.3,23.5,29.78,West,259,22.0,30.0,25,0.00,,---,0.00,VWS V14.00,2013-02-12 01:40:00,
2013-02-11 20:45:00,59.2,22.5,29.78,WSW,250,17.0,30.0,24,0.00,,---,0.00,VWS V14.00,2013-02-12 01:45:00,
2013-02-11 20:50:00,59.0,23.2,29.78,WSW,255,11.0,32.0,25,0.00,,---,0.00,VWS V14.00,2013-02-12 01:50:00,
2013-02-11 20:55:00,58.7,22.0,29.78,West,272,22.0,32.0,24,0.00,,---,0.00,VWS V14.00,2013-02-12 01:55:00,
2013-02-11 21:00:00,58.6,21.9,29.78,WSW,257,8.0,22.0,24,0.00,,---,0.00,VWS V14.00,2013-02-12 02:00:00,
2013-02-11 21:05:00,58.3,21.7,29.79,WSW,254,15.0,24.0,24,0.00,,---,0.00,VWS V14.00,2013-02-12 02:05:00,
2013-02-11 21:10:00,58.1,22.5,29.79,West,261,13.0,25.0,25,0.00,,---,0.00,VWS V14.00,2013-02-12 02:10:00,
2013-02-11 21:15:00,57.7,22.1,29.79,SW,236,14.0,25.0,25,0.00,,---,0.00,VWS V14.00,2013-02-12 02:15:00,
2013-02-11 21:20:00,57.7,21.2,29.80,WSW,249,25.0,28.0,24,0.00,,---,0.00,VWS V14.00,2013-02-12 02:20:00,
2013-02-11 21:25:00,57.7,20.2,29.79,West,273,14.0,28.0,23,0.00,,---,0.00,VWS V14.00,2013-02-12 02:25:00,
2013-02-11 21:30:00,57.5,20.0,29.80,WSW,247,13.0,31.0,23,0.00,,---,0.00,VWS V14.00,2013-02-12 02:30:00,
2013-02-11 21:35:00,57.5,20.0,29.80,West,266,14.0,31.0,23,0.00,,---,0.00,VWS V14.00,2013-02-12 02:35:00,
2013-02-11 21:40:00,57.3,19.8,29.80,WSW,255,8.0,31.0,23,0.00,,---,0.00,VWS V14.00,2013-02-12 02:40:00,
2013-02-11 21:45:00,57.1,19.7,29.80,WSW,254,28.0,31.0,23,0.00,,---,0.00,VWS V14.00,2013-02-12 02:45:00,
2013-02-11 21:50:00,57.0,19.6,29.81,WSW,257,20.0,31.0,23,0.00,,---,0.00,VWS V14.00,2013-02-12 02:50:00,
2013-02-11 21:55:00,56.9,20.5,29.81,West,263,15.0,31.0,24,0.00,,---,0.00,VWS V14.00,2013-02-12 02:55:00,
2013-02-11 22:00:00,56.5,19.2,29.81,West,262,13.0,21.0,23,0.00,,---,0.00,VWS V14.00,2013-02-12 03:00:00,
2013-02-11 22:05:00,56.3,20.0,29.81,West,273,14.0,28.0,24,0.00,,---,0.00,VWS V14.00,2013-02-12 03:05:00,
2013-02-11 22:10:00,56.1,19.8,29.81,West,268,6.0,28.0,24,0.00,,---,0.00,VWS V14.00,2013-02-12 03:10:00,
2013-02-11 22:15:00,55.7,19.5,29.82,West,262,13.0,28.0,24,0.00,,---,0.00,VWS V14.00,2013-02-12 03:15:00,
2013-02-11 22:20:00,55.5,20.3,29.82,West,271,9.0,28.0,25,0.00,,---,0.00,VWS V14.00,2013-02-12 03:20:00,
2013-02-11 22:25:00,55.6,19.4,29.82,WNW,286,13.0,28.0,24,0.00,,---,0.00,VWS V14.00,2013-02-12 03:25:00,
2013-02-11 22:30:00,55.5,20.3,29.82,WNW,284,22.0,22.0,25,0.00,,---,0.00,VWS V14.00,2013-02-12 03:30:00,
2013-02-11 22:35:00,55.5,20.3,29.82,West,263,19.0,29.0,25,0.00,,---,0.00,VWS V14.00,2013-02-12 03:35:00,
2013-02-11 22:40:00,55.4,21.1,29.82,West,274,12.0,29.0,26,0.00,,---,0.00,VWS V14.00,2013-02-12 03:40:00,
2013-02-11 22:45:00,55.0,20.8,29.82,West,266,15.0,29.0,26,0.00,,---,0.00,VWS V14.00,2013-02-12 03:45:00,
2013-02-11 22:50:00,54.9,20.7,29.81,WNW,288,13.0,29.0,26,0.00,,---,0.00,VWS V14.00,2013-02-12 03:50:00,
2013-02-11 22:55:00,54.8,21.5,29.81,WNW,288,12.0,29.0,27,0.00,,---,0.00,VWS V14.00,2013-02-12 03:55:00,
2013-02-11 23:00:00,54.3,21.9,29.81,West,262,14.0,18.0,28,0.00,,---,0.00,VWS V14.00,2013-02-12 04:00:00,
2013-02-11 23:05:00,54.1,22.6,29.82,WSW,254,17.0,29.0,29,0.00,,---,0.00,VWS V14.00,2013-02-12 04:05:00,
2013-02-11 23:10:00,54.1,22.6,29.82,WSW,252,11.0,29.0,29,0.00,,---,0.00,VWS V14.00,2013-02-12 04:10:00,
2013-02-11 23:15:00,54.1,21.7,29.82,WSW,256,12.0,29.0,28,0.00,,---,0.00,VWS V14.00,2013-02-12 04:15:00,
2013-02-11 23:20:00,53.9,22.4,29.83,West,272,14.0,29.0,29,0.00,,---,0.00,VWS V14.00,2013-02-12 04:20:00,
2013-02-11 23:25:00,53.5,22.9,29.83,West,274,15.0,29.0,30,0.00,,---,0.00,VWS V14.00,2013-02-12 04:25:00,
2013-02-11 23:30:00,53.3,22.7,29.82,West,267,12.0,14.0,30,0.00,,---,0.00,VWS V14.00,2013-02-12 04:30:00,
2013-02-11 23:35:00,53.1,22.5,29.83,West,279,16.0,20.0,30,0.00,,---,0.00,VWS V14.00,2013-02-12 04:35:00,
2013-02-11 23:40:00,52.9,23.9,29.84,West,279,14.0,20.0,32,0.00,,---,0.00,VWS V14.00,2013-02-12 04:40:00,
2013-02-11 23:45:00,52.4,24.2,29.84,West,277,12.0,20.0,33,0.00,,---,0.00,VWS V14.00,2013-02-12 04:45:00,
2013-02-11 23:50:00,52.2,23.2,29.84,WNW,290,16.0,23.0,32,0.00,,---,0.00,VWS V14.00,2013-02-12 04:50:00,
2013-02-11 23:55:00,51.9,23.7,29.85,West,265,14.0,25.0,33,0.00,,---,0.00,VWS V14.00,2013-02-12 04:55:00,